NOAA 16 DEB, 41147

Orbit data source: Space-Track

NOAA 16 DEB, 41147 is space debris in SSO originally from a launch on Thu, 21 Sep 2000 UTC launched from the Air Force Western Test Range (AFWTR). Debris objects in space refer to the collection of defunct objects orbiting the Earth. Examples of debris include non-operational satellites, rocket bodies, and fragments generated from explosions, collisions, or faulty payload assembly.

Loading next visibility...
Identifier
41147, 2000-055CE
Orbit
SSO
Country
Flag of USUS
Related business
Manufacturer
Unknown
Mission
Spacecraft
Bus & Motor
Unknown
Mass
Unknown
Launch date (UTC)
2000-09-21 (26 years ago)
Launch vehicle
Unknown
Launch site
Air Force Western Test Range (AFWTR)
Object type
Payload
Rocket body
Debris
Shape & HBR
Unknown shape, 0.1 m
Radar Cross Section
Medium (>0.1 m² and <1 m²)

Expand to show TLE details & history
Last TLE update: 5 days ago

TLE from 5 days ago
0 NOAA 16 DEB
1 41147U 00055CE  26250.05640440  .00002912  00000-0  14255-2 0  9998
2 41147  98.9515 292.2413 0068546 186.2337 173.7992 14.17442581550171
Epoch: 2026-09-07T01:21Z
TLE epoch observation values (Epoch: 2026-09-07T01:21:13.340Z)
Latitude
0.00006°
Longitude
-74.20694°
Altitude
886.079 km
Speed
7.384 km/s
True Right ascension
19h 28m 57s
True Declination
0° 00' 00"
Sunlit
Object was in full shadow at epoch
Visualization orbit readout
Latitude
Unknown
Longitude
Unknown
Altitude
Unknown
Speed
Unknown
Apparent Right ascension
Unknown
Apparent Declination
Unknown
Sunlit
N/A
Visualization observer readout
Local Sidereal Time
09:53:16
Azimuth
Unknown
Elevation
Unknown
Doppler factor
Unknown
Orbital elements
Apogee altitude
880.605 km
Perigee altitude
781.771 km
Semi-major axis
7,209.325 km
Eccentricity
0.00685
Inclination
98.9515°
RAAN
292.2413°
Arg. of periapsis
186.2337°
True anomaly
173.88333°
Mean anomaly
173.7992°
Eccentric anomaly
173.84133°
Mean motion
3.54569 °/min
Orbital period
101.53 mins
BSTAR
0.0014255
Loading maneuver chart data...
Computing Atmospheric mass density...
Loading historical data...
Loading historical data...
Loading historical data...
Loading historical data...
Loading historical data...
Loading historical data...
Loading historical data...

Documentation

Showing up to 5 results
|